N8VIM Weather Reports


time (UTC)temp
C
wind
direction
speed
KPH
gust
KPH
rain 1hr
cm
rain 24hr
cm
rain mn
cm
humidity
%
barometer
mb
20260901225715 17 0 0.0 0.0 361.62 0.00 1.02 96 1019.4
20260901225215 17 0 0.0 0.0 361.62 0.00 1.02 96 1019.4
20260901224720 17 0 0.0 0.0 361.62 0.00 1.02 96 1019.4
20260901224215 17 0 0.0 0.0 361.62 0.00 1.02 96 1019.4
20260901223715 17 0 0.0 0.0 361.62 0.00 1.02 96 1019.4
20260901223215 17 0 0.0 0.0 361.62 0.00 1.02 96 1019.4
20260901222715 17 0 0.0 0.0 361.62 0.00 1.02 96 1019.4
20260901222215 17 0 0.0 0.0 361.62 0.00 1.02 96 1019.4
20260901221717 17 0 0.0 0.0 361.62 0.00 1.02 96 1019.4
20260901221214 17 0 0.0 0.0 361.62 0.00 1.02 96 1019.4
20260901220715 17 0 0.0 0.0 361.62 0.00 1.02 96 1019.5
20260901220217 17 0 0.0 0.0 361.62 0.00 1.02 96 1019.4
20260901215716 17 0 0.0 0.0 361.62 0.00 1.02 96 1019.3
20260901215215 17 0 0.0 0.0 361.62 0.00 1.02 96 1019.3
20260901214715 17 0 0.0 0.0 361.62 0.00 1.02 95 1019.3
20260901214214 17 0 0.0 0.0 361.62 0.00 1.02 96 1019.2
20260901213715 17 198 0.0 6.4 361.62 0.00 1.02 95 1019.2
20260901213215 17 135 3.2 9.7 361.62 0.00 1.02 95 1019.2
20260901212715 18 210 0.0 6.4 361.62 0.00 1.02 95 1019.1
20260901211715 18 205 1.6 12.9 361.59 0.00 0.99 95 1019.1
20260901211215 18 174 4.8 19.3 361.59 0.00 0.99 96 1019.1
20260901210714 18 190 9.7 14.5 361.59 0.00 0.99 96 1019.0
20260901210216 18 210 1.6 8.0 361.59 0.00 0.99 96 1018.9
20260901204720 18 0 0.0 0.0 361.54 0.00 0.94 96 1018.7
20260901203715 18 0 0.0 0.0 361.52 0.00 0.91 97 1018.6
20260901203215 18 0 0.0 0.0 361.52 0.00 0.91 96 1018.5
20260901202716 18 0 0.0 0.0 361.52 0.00 0.91 96 1018.5
20260901202214 18 0 0.0 0.0 361.52 0.00 0.91 96 1018.6
20260901201716 18 0 0.0 0.0 361.52 0.00 0.91 96 1018.5
20260901201214 18 0 0.0 0.0 361.52 0.00 0.91 96 1018.6
20260901200716 18 0 0.0 0.0 361.52 0.00 0.91 96 1018.5
20260901200215 18 0 0.0 0.0 361.52 0.00 0.91 96 1018.5
20260901195715 18 0 0.0 0.0 361.52 0.00 0.91 96 1018.5
20260901194717 18 93 0.0 1.6 361.49 0.00 0.89 96 1018.5
20260901194214 18 76 0.0 3.2 361.49 0.00 0.89 96 1018.4
20260901193949 18 0 1.6 0.0 361.49 0.00 0.89 96 1018.4
20260901193215 18 52 0.0 3.2 361.49 0.00 0.89 96 1018.4
20260901192715 18 49 0.0 1.6 361.49 0.00 0.89 96 1018.5
20260901192214 18 56 0.0 3.2 361.49 0.00 0.89 96 1018.5
20260901191715 18 0 0.0 0.0 361.47 0.00 0.86 96 1018.6
20260901190715 18 96 0.0 1.6 361.47 0.00 0.86 96 1018.5
20260901190215 18 0 0.0 0.0 361.47 0.00 0.86 96 1018.5
20260901185714 18 0 0.0 0.0 361.44 0.00 0.84 96 1018.5
20260901184715 18 0 0.0 0.0 361.42 0.00 0.81 96 1018.5
20260901184214 18 0 0.0 0.0 361.42 0.00 0.81 96 1018.5
20260901183714 18 0 0.0 0.0 361.39 0.00 0.79 96 1018.6
20260901183215 18 0 0.0 0.0 361.37 0.00 0.76 96 1018.6
20260901182214 18 0 0.0 0.0 361.34 0.00 0.74 96 1018.7
20260901181715 18 94 0.0 3.2 361.31 0.00 0.71 96 1018.7
20260901181214 18 0 0.0 0.0 361.26 0.00 0.66 96 1018.7
20260901180715 18 73 0.0 1.6 361.21 0.00 0.61 95 1018.6
20260901180215 18 80 0.0 1.6 361.19 0.00 0.58 95 1018.5
20260901175714 18 73 0.0 1.6 361.19 0.00 0.58 95 1018.4
20260901175214 18 38 0.0 3.2 361.19 0.00 0.58 95 1018.4
20260901174716 18 84 0.0 3.2 361.19 0.00 0.58 95 1018.3
20260901174214 18 38 0.0 3.2 361.19 0.00 0.58 95 1018.2
20260901173715 18 0 0.0 0.0 361.19 0.00 0.58 95 1018.1
20260901173215 18 0 0.0 0.0 361.19 0.00 0.58 95 1018.0
20260901172715 18 0 0.0 0.0 361.19 0.00 0.58 95 1018.1
20260901172214 18 0 0.0 0.0 361.16 0.00 0.56 95 1018.0
20260901171716 18 0 0.0 0.0 361.16 0.00 0.56 95 1018.1
20260901171214 19 0 0.0 0.0 361.16 0.00 0.56 95 1018.2
20260901170715 19 58 0.0 3.2 361.14 0.00 0.53 95 1018.1
20260901170215 19 59 0.0 3.2 361.14 0.00 0.53 95 1018.1
20260901164715 19 0 0.0 0.0 361.11 0.00 0.51 94 1018.1
20260901164214 19 55 0.0 3.2 361.09 0.00 0.48 95 1018.3
20260901163715 19 0 0.0 0.0 361.06 0.00 0.46 95 1018.3
20260901163215 19 0 0.0 0.0 361.01 0.00 0.41 95 1018.4
20260901161715 19 0 0.0 0.0 360.98 0.00 0.38 95 1018.5
20260901160714 19 0 0.0 0.0 360.98 0.00 0.38 95 1018.5
20260901160216 19 0 0.0 0.0 360.98 0.00 0.38 95 1018.4
20260901155714 20 0 0.0 0.0 360.98 0.00 0.38 95 1018.2
20260901155214 20 48 0.0 1.6 360.98 0.00 0.38 95 1018.2
20260901154722 20 53 0.0 1.6 360.98 0.00 0.38 95 1018.2
20260901154214 20 0 0.0 0.0 360.98 0.00 0.38 95 1018.2
20260901153215 20 53 0.0 3.2 360.98 0.00 0.38 96 1018.1
20260901152714 20 53 1.6 3.2 360.98 0.00 0.38 96 1018.1
20260901152214 20 0 0.0 0.0 360.98 0.00 0.38 96 1018.1
20260901151715 20 0 0.0 0.0 360.98 0.00 0.38 96 1018.1
20260901151214 20 60 0.0 3.2 360.98 0.00 0.38 96 1018.2
20260901150215 20 0 0.0 0.0 360.98 0.00 0.38 96 1018.2
20260901145714 20 0 0.0 0.0 360.98 0.00 0.38 96 1018.3
20260901145214 20 113 0.0 3.2 360.98 0.00 0.38 97 1018.3
20260901144718 20 0 0.0 0.0 360.98 0.00 0.38 97 1018.2
20260901144214 20 0 0.0 0.0 360.98 0.00 0.38 97 1018.1
20260901143214 20 0 0.0 0.0 360.98 0.00 0.38 97 1018.2
20260901142214 20 0 0.0 0.0 360.98 0.00 0.38 97 1018.3
20260901141715 19 0 0.0 0.0 360.98 0.00 0.38 97 1018.4
20260901141214 19 0 0.0 0.0 360.98 0.00 0.38 97 1018.3
20260901140715 19 118 0.0 0.0 360.98 0.00 0.38 97 1018.3
20260901140215 19 169 0.0 1.6 360.98 0.00 0.38 97 1018.3
20260901135714 19 165 0.0 3.2 360.98 0.00 0.38 97 1018.2
20260901135214 19 0 0.0 0.0 360.98 0.00 0.38 97 1018.2
20260901134714 19 0 0.0 0.0 360.98 0.00 0.38 97 1018.4
20260901134214 18 98 0.0 3.2 360.98 0.00 0.38 97 1018.4
20260901133217 18 0 0.0 0.0 360.98 0.00 0.38 97 1018.5
20260901132714 18 0 0.0 0.0 360.98 0.00 0.38 97 1018.6
20260901132214 18 0 0.0 0.0 360.98 0.00 0.38 97 1018.5
20260901131717 18 0 0.0 0.0 360.98 0.00 0.38 97 1018.6
20260901131214 18 0 0.0 0.0 360.98 0.00 0.38 97 1018.7
20260901130715 18 0 0.0 0.0 360.98 0.00 0.38 97 1018.8
20260901130214 18 0 0.0 0.0 360.98 0.00 0.38 97 1018.7
20260901125714 18 0 0.0 0.0 360.98 0.00 0.38 97 1018.8
20260901124721 18 0 0.0 0.0 360.96 0.00 0.36 96 1018.5
20260901124214 18 0 0.0 0.0 360.93 0.00 0.33 96 1018.5
20260901122715 18 0 0.0 0.0 360.88 0.00 0.28 96 1018.6
20260901122214 18 0 0.0 0.0 360.83 0.00 0.23 96 1018.7
20260901121715 18 0 0.0 0.0 360.78 0.00 0.18 96 1018.8
20260901121213 18 0 0.0 0.0 360.76 0.00 0.15 96 1018.8
20260901120217 18 0 0.0 0.0 360.71 0.00 0.10 96 1018.7
20260901115215 18 0 0.0 0.0 360.68 0.00 0.08 96 1018.6
20260901114715 18 0 0.0 0.0 360.68 0.00 0.08 96 1018.6
20260901114214 18 0 0.0 0.0 360.68 0.00 0.08 96 1018.7
20260901113715 18 262 0.0 4.8 360.68 0.00 0.08 96 1018.7
20260901113214 18 0 1.6 0.0 360.68 0.00 0.08 96 1018.7
20260901112213 18 0 0.0 0.0 360.68 0.00 0.08 95 1018.6
20260901111715 18 0 0.0 0.0 360.68 0.00 0.08 95 1018.6
20260901111213 18 0 0.0 0.0 360.68 0.00 0.08 95 1018.6
20260901110219 18 0 0.0 0.0 360.68 0.00 0.08 95 1018.5
20260901104715 18 0 0.0 0.0 360.68 0.00 0.08 94 1018.3
20260901104213 18 0 0.0 0.0 360.68 0.00 0.08 94 1018.3
20260901103214 18 0 0.0 0.0 360.68 0.00 0.08 93 1018.1
20260901101715 18 0 0.0 0.0 360.65 0.00 0.05 93 1018.0
20260901100217 18 0 0.0 0.0 360.63 0.00 0.03 90 1018.0
20260901094721 18 0 0.0 0.0 360.60 0.00 0.00 88 1017.9
20260901093218 18 315 0.0 3.2 360.60 0.00 0.00 86 1017.9
20260901092214 18 259 0.0 3.2 360.60 0.00 0.00 85 1017.9
20260901091727 18 218 0.0 4.8 360.60 0.00 0.00 84 1017.8
20260901091213 18 0 0.0 0.0 360.60 0.00 0.00 84 1017.8
20260901090713 18 0 0.0 0.0 360.60 0.00 0.00 84 1017.8
20260901090217 18 0 0.0 0.0 360.60 0.00 0.00 84 1017.8
20260901085714 18 0 0.0 0.0 360.60 0.00 0.00 83 1017.8
20260901085213 18 0 0.0 0.0 360.60 0.00 0.00 83 1017.8
20260901084722 18 0 0.0 0.0 360.60 0.00 0.00 83 1017.8
20260901083214 18 0 0.0 0.0 360.60 0.00 0.00 83 1017.7
20260901081714 18 194 0.0 3.2 360.60 0.00 0.00 84 1017.8
20260901081214 18 212 1.6 4.8 360.60 0.00 0.00 84 1017.8
20260901080214 18 184 0.0 4.8 360.60 0.00 0.00 85 1017.8
20260901075213 19 0 0.0 0.0 360.60 0.00 0.00 85 1017.8
20260901074714 19 0 0.0 0.0 360.60 0.00 0.00 84 1017.8
20260901073217 19 0 0.0 0.0 360.60 0.00 0.00 84 1018.1
20260901072213 19 0 0.0 0.0 360.60 0.00 0.00 84 1018.3
20260901071715 19 0 0.0 0.0 360.60 0.00 0.00 83 1018.3
20260901071213 19 0 0.0 0.0 360.60 0.00 0.00 83 1018.2
20260901070714 19 0 0.0 0.0 360.60 0.00 0.00 84 1018.3
20260901070216 19 0 0.0 0.0 360.60 0.00 0.00 84 1018.4
20260901065213 19 0 0.0 0.0 360.60 0.00 0.00 83 1018.4
20260901064718 19 0 0.0 0.0 360.60 0.00 0.00 83 1018.4
20260901064213 19 0 0.0 0.0 360.60 0.00 0.00 83 1018.4
20260901063218 19 0 0.0 0.0 360.60 0.00 0.00 83 1018.4
20260901062213 19 0 0.0 0.0 360.60 0.00 0.00 83 1018.4
20260901061721 19 236 0.0 3.2 360.60 0.00 0.00 82 1018.4
20260901060219 20 0 0.0 0.0 360.60 0.00 0.00 83 1018.5
20260901055213 20 0 0.0 0.0 360.60 0.00 0.00 82 1018.6
20260901054718 20 210 0.0 0.0 360.60 0.00 0.00 82 1018.6
20260901054216 20 210 0.0 0.0 360.60 0.00 0.00 82 1018.5
20260901053214 20 238 0.0 3.2 360.60 0.00 0.00 82 1018.5
20260901052213 20 239 1.6 3.2 360.60 0.00 0.00 82 1018.6
20260901051717 20 232 0.0 1.6 360.60 0.00 0.00 82 1018.6
20260901050214 20 0 0.0 0.0 360.60 0.00 0.00 81 1018.5
20260901044718 20 0 0.0 0.0 360.60 0.00 0.00 81 1018.5
20260901044214 20 312 0.0 1.6 360.60 0.00 0.00 81 1018.5
20260901043218 19 0 0.0 0.0 360.60 0.00 0.00 82 1018.5
20260901042213 19 0 0.0 0.0 360.60 0.00 0.00 82 1018.6
20260901041716 19 273 0.0 4.8 360.60 0.00 0.00 83 1018.5
20260901041213 19 290 1.6 3.2 360.60 0.00 0.00 83 1018.5
20260901040217 19 235 0.0 1.6 360.60 0.00 0.00 83 1018.5
20260901034716 19 291 0.0 3.2 360.60 0.00 0.00 84 1018.5
20260901034213 19 287 0.0 1.6 360.60 0.00 0.00 84 1018.6
20260901031717 19 278 0.0 1.6 360.60 0.00 0.00 84 1018.6
20260901031213 19 288 1.6 3.2 360.60 0.00 0.00 84 1018.6
20260901030213 19 0 0.0 0.0 360.60 0.00 0.00 83 1018.6
20260901024714 19 0 0.0 0.0 360.60 0.00 0.00 83 1018.5
20260901024213 19 0 0.0 0.0 360.60 0.00 0.00 83 1018.5
20260901023213 19 277 1.6 1.6 360.60 0.00 0.00 83 1018.5
20260901021714 19 0 0.0 0.0 360.60 0.00 0.00 81 1018.5
20260901021213 19 0 0.0 0.0 360.60 0.00 0.00 81 1018.4
20260901020713 19 0 0.0 0.0 360.60 0.00 0.00 81 1018.4
20260901020213 20 0 0.0 0.0 360.60 0.00 0.00 81 1018.4
20260901014715 20 0 0.0 0.0 360.60 0.00 0.00 80 1018.5
20260901014213 20 0 0.0 0.0 360.60 0.00 0.00 80 1018.5
20260901013213 20 274 0.0 3.2 360.60 0.00 0.00 80 1018.6
20260901012213 20 0 0.0 0.0 360.60 0.00 0.00 80 1018.7
20260901011714 20 0 0.0 0.0 360.60 0.00 0.00 80 1018.8
20260901011213 20 0 0.0 0.0 360.60 0.00 0.00 80 1018.8
20260901010213 20 0 0.0 0.0 360.60 0.00 0.00 80 1018.9
20260901005213 20 0 0.0 0.0 360.60 0.00 0.00 80 1018.8
20260901004721 20 0 0.0 0.0 360.60 0.00 0.00 80 1018.8
20260901004213 20 0 0.0 0.0 360.60 0.00 0.00 80 1018.7
20260901003213 20 298 0.0 3.2 360.60 0.00 0.00 79 1018.7
20260901002713 20 308 1.6 3.2 360.60 0.00 0.00 78 1018.6
20260901002212 20 0 0.0 0.0 360.60 0.00 0.00 77 1018.6
20260901001714 20 0 0.0 0.0 360.60 0.00 0.00 77 1018.6
20260901001213 20 0 0.0 0.0 360.60 0.00 0.00 76 1018.6
20260901000213 20 0 0.0 0.0 360.60 0.00 0.00 75 1018.6
20260831235712 20 0 0.0 0.0 360.60 0.00 0.00 75 1018.6
20260831235212 20 0 0.0 0.0 360.60 0.00 0.00 75 1018.5
20260831234714 20 0 0.0 0.0 360.60 0.00 0.00 74 1018.5
20260831234212 20 274 0.0 1.6 360.60 0.00 0.00 74 1018.6
20260831233213 20 290 1.6 3.2 360.60 0.00 0.00 74 1018.8
20260831232212 21 277 1.6 3.2 360.60 0.00 0.00 73 1018.9
20260831231714 21 285 1.6 3.2 360.60 0.00 0.00 73 1018.8
20260831231212 21 284 0.0 0.0 360.60 0.00 0.00 71 1018.9
20260831230213 21 0 0.0 0.0 360.60 0.00 0.00 69 1019.0